Weather History for Bentonville, AR

Change the Weather History Date:

Saturday, September 21, 2013

  Actual Average Record
Temperature  
Mean Temperature 62 °F -  
Max Temperature 73 °F 78 °F 96 °F (1955)
Min Temperature 50 °F 54 °F 33 °F (1983)
Degree Days  
Heating Degree Days 4    
Growing Degree Days 12 (Base 50)    
Moisture  
Dew Point 49 °F    
Average Humidity 65    
Maximum Humidity 88    
Minimum Humidity 38    
Precipitation  
Precipitation 0.00 in - - ()
Sea Level Pressure  
Sea Level Pressure 29.98 in    
Wind  
Wind Speed 4 mph (NNE)    
Max Wind Speed 13 mph    
Max Gust Speed 18 mph    
Visibility 10 miles    
Events      
Averages and records for this station are not official NWS values.
T = Trace of Precipitation, MM = Missing Value Source: NWS Daily Summary

Daily Weather History Graph

Daily Weather History Graph

Search for Another Location

Airport:

Trip Planner

Search our weather history database for the weather conditions in past years. The results will help you decide how hot, cold, wet, or windy it might be!

Date:

Astronomy

Sep. 21, 2013 Rise Set
Actual Time 7:04 AM CDT 7:14 PM CDT
Civil Twilight 6:38 AM CDT 7:40 PM CDT
Nautical Twilight 6:08 AM CDT 8:10 PM CDT
Astronomical Twilight 5:37 AM CDT 8:40 PM CDT
Moon 8:31 PM CDT (9/21) 9:18 AM CDT (9/21)
Length of Visible Light 13h 02m
Length of Day
12h 10m
Waning Gibbous, 94% of the Moon is Illuminated
Sep 21
Waning Gibbous
Sep 26
Last Quarter
Oct 4
New
Oct 11
First Quarter
Oct 18
Full

Hourly Weather History & Observations

Time (CDT) Temp. Dew Point Humidity Pressure Visibility Wind Dir Wind Speed Gust Speed Precip Events Conditions
12:15 AM 57.2 °F 51.8 °F 82% 29.98 in 10.0 mi North 3.5 mph - N/A   Clear
12:35 AM 57.2 °F 51.8 °F 82% 29.98 in 10.0 mi North 4.6 mph - N/A   Clear
12:55 AM 57.2 °F 51.8 °F 82% 29.98 in 10.0 mi North 4.6 mph - N/A   Clear
1:15 AM 55.4 °F 51.8 °F 88% 29.98 in 10.0 mi North 4.6 mph - N/A   Clear
1:35 AM 55.4 °F 50.0 °F 82% 29.98 in 10.0 mi NNE 3.5 mph - N/A   Clear
1:55 AM 55.4 °F 50.0 °F 82% 29.98 in 10.0 mi Calm Calm - N/A   Clear
2:35 AM 53.6 °F 48.2 °F 82% 29.98 in 10.0 mi Calm Calm - N/A   Clear
2:55 AM 53.6 °F 48.2 °F 82% 29.98 in 10.0 mi Calm Calm - N/A   Clear
3:15 AM 53.6 °F 50.0 °F 88% 29.98 in 10.0 mi North 3.5 mph - N/A   Clear
3:35 AM 51.8 °F 48.2 °F 88% 29.98 in 10.0 mi Calm Calm - N/A   Clear
3:55 AM 51.8 °F 48.2 °F 88% 29.98 in 10.0 mi Calm Calm - N/A   Clear
4:15 AM 51.8 °F 48.2 °F 88% 29.98 in 10.0 mi Calm Calm - N/A   Clear
4:35 AM 51.8 °F 48.2 °F 88% 29.98 in 10.0 mi Calm Calm - N/A   Clear
4:55 AM 51.8 °F 48.2 °F 88% 29.98 in 10.0 mi Calm Calm - N/A   Clear
5:15 AM 51.8 °F 46.4 °F 82% 29.98 in 10.0 mi Calm Calm - N/A   Clear
5:35 AM 51.8 °F 46.4 °F 82% 29.99 in 10.0 mi NE 3.5 mph - N/A   Clear
5:55 AM 51.8 °F 48.2 °F 88% 29.99 in 10.0 mi Calm Calm - N/A   Clear
6:15 AM 51.8 °F 46.4 °F 82% 29.99 in 10.0 mi Calm Calm - N/A   Clear
6:55 AM 50.0 °F 46.4 °F 87% 30.00 in 10.0 mi Calm Calm - N/A   Clear
7:15 AM 50.0 °F 46.4 °F 87% 30.00 in 10.0 mi Calm Calm - N/A   Clear
7:35 AM 51.8 °F 46.4 °F 82% 30.00 in 10.0 mi NNE 3.5 mph - N/A   Clear
7:55 AM 51.8 °F 48.2 °F 88% 30.00 in 10.0 mi Calm Calm - N/A   Clear
8:16 AM 53.6 °F 50.0 °F 88% 30.01 in 10.0 mi North 4.6 mph - N/A   Clear
8:55 AM 57.2 °F 51.8 °F 82% 30.02 in 10.0 mi NNE 5.8 mph - N/A   Clear
9:15 AM 60.8 °F 50.0 °F 68% 30.02 in 10.0 mi NNE 6.9 mph - N/A   Clear
9:55 AM 62.6 °F 51.8 °F 68% 30.03 in 10.0 mi NNE 8.1 mph - N/A   Clear
10:15 AM 64.4 °F 50.0 °F 59% 30.03 in 10.0 mi NE 8.1 mph - N/A   Clear
10:36 AM 64.4 °F 48.2 °F 56% 30.04 in 10.0 mi NE 10.4 mph - N/A   Clear
10:55 AM 66.2 °F 48.2 °F 52% 30.04 in 10.0 mi NE 12.7 mph 16.1 mph N/A   Clear
11:15 AM 66.2 °F 48.2 °F 52% 30.04 in 10.0 mi NNE 11.5 mph - N/A   Clear
11:35 AM 68.0 °F 48.2 °F 49% 30.03 in 10.0 mi NNE 10.4 mph - N/A   Clear
11:55 AM 69.8 °F 48.2 °F 46% 30.03 in 10.0 mi NE 10.4 mph 16.1 mph N/A   Clear
12:15 PM 69.8 °F 48.2 °F 46% 30.02 in 10.0 mi North 8.1 mph - N/A   Clear
12:35 PM 71.6 °F 48.2 °F 43% 30.02 in 10.0 mi NNE 9.2 mph - N/A   Clear
12:55 PM 71.6 °F 48.2 °F 43% 30.01 in 10.0 mi North 10.4 mph - N/A   Clear
1:15 PM 71.6 °F 46.4 °F 41% 30.00 in 10.0 mi NE 11.5 mph - N/A   Clear
1:35 PM 73.4 °F 46.4 °F 38% 29.99 in 10.0 mi NE 8.1 mph 16.1 mph N/A   Clear
1:55 PM 73.4 °F 46.4 °F 38% 29.99 in 10.0 mi North 10.4 mph - N/A   Clear
2:15 PM 73.4 °F 46.4 °F 38% 29.98 in 10.0 mi North 11.5 mph - N/A   Clear
2:35 PM 73.4 °F 46.4 °F 38% 29.98 in 10.0 mi North 10.4 mph 18.4 mph N/A   Clear
2:55 PM 73.4 °F 46.4 °F 38% 29.97 in 10.0 mi NNE 11.5 mph - N/A   Clear
3:15 PM 73.4 °F 46.4 °F 38% 29.97 in 10.0 mi NNE 10.4 mph - N/A   Clear
3:35 PM 73.4 °F 46.4 °F 38% 29.96 in 10.0 mi NNE 9.2 mph - N/A   Clear
3:55 PM 73.4 °F 46.4 °F 38% 29.95 in 10.0 mi North 12.7 mph 18.4 mph N/A   Clear
4:15 PM 73.4 °F 46.4 °F 38% 29.95 in 5.0 mi NE 8.1 mph - N/A   Clear
4:35 PM 73.4 °F 46.4 °F 38% 29.95 in 10.0 mi North 9.2 mph - N/A   Clear
4:55 PM 73.4 °F 46.4 °F 38% 29.94 in 10.0 mi North 10.4 mph - N/A   Clear
5:15 PM 73.4 °F 48.2 °F 41% 29.94 in 10.0 mi NNE 8.1 mph - N/A   Clear
5:36 PM 73.4 °F 46.4 °F 38% 29.94 in 10.0 mi North 9.2 mph - N/A   Clear
5:55 PM 71.6 °F 46.4 °F 41% 29.94 in 10.0 mi North 8.1 mph - N/A   Clear
6:15 PM 71.6 °F 46.4 °F 41% 29.94 in 10.0 mi North 8.1 mph - N/A   Clear
6:36 PM 71.6 °F 46.4 °F 41% 29.94 in 10.0 mi North 3.5 mph - N/A   Clear
6:55 PM 69.8 °F 46.4 °F 43% 29.94 in 10.0 mi NNE 6.9 mph - N/A   Clear
7:15 PM 66.2 °F 48.2 °F 52% 29.94 in 10.0 mi NNE 4.6 mph - N/A   Clear
7:35 PM 66.2 °F 50.0 °F 56% 29.94 in 10.0 mi NNE 3.5 mph - N/A   Clear
7:56 PM 64.4 °F 53.6 °F 68% 29.94 in 10.0 mi Calm Calm - N/A   Clear
8:15 PM 62.6 °F 50.0 °F 63% 29.94 in 10.0 mi Calm Calm - N/A   Clear
8:35 PM 60.8 °F 51.8 °F 72% 29.94 in 10.0 mi Calm Calm - N/A   Clear
8:55 PM 62.6 °F 50.0 °F 63% 29.94 in 10.0 mi Calm Calm - N/A   Clear
9:35 PM 60.8 °F 53.6 °F 77% 29.94 in 10.0 mi NE 3.5 mph - N/A   Clear
9:55 PM 59.0 °F 51.8 °F 77% 29.94 in 10.0 mi NNE 3.5 mph - N/A   Clear
10:15 PM 57.2 °F 51.8 °F 82% 29.95 in 10.0 mi Calm Calm - N/A   Clear
10:35 PM 57.2 °F 50.0 °F 77% 29.95 in 10.0 mi Calm Calm - N/A   Clear
10:55 PM 55.4 °F 50.0 °F 82% 29.96 in 10.0 mi Calm Calm - N/A   Clear
11:15 PM 55.4 °F 51.8 °F 88% 29.95 in 10.0 mi Calm Calm - N/A   Clear
11:35 PM 55.4 °F 51.8 °F 88% 29.96 in 10.0 mi Calm Calm - N/A   Clear
11:55 PM 55.4 °F 48.2 °F 77% 29.96 in 10.0 mi Calm Calm - N/A   Clear